Location: Hains Lake
(37.8540°N, 99.8578°W)
Time: 19:48:49
(UTC+00:00)

Cosmos 2278 Rocket - Pass Details

Date: 11 December 2019
Orbit: 843 x 844 km, 71.0° (Epoch: 18 January)

Event Time Altitude Azimuth Distance (km) Brightness Sun altitude
Rises 23:39:29 0° 340° (NNW) 3,407 5.3 -4.2°
Reaches altitude 10° 23:41:57 10° 343° (NNW) 2,468 4.6 -4.6°
Maximum altitude 23:47:36 68° 66° (ENE) 906 2.2 -5.6°
Drops below altitude 10° 23:53:12 10° 149° (SSE) 2,453 4.6 -6.6°
Sets 23:55:39 0° 152° (SSE) 3,384 5.3 -7.1°
